Regional Weather Roundup
Issued by NWS

Home | Current Version | Previous Version | Text Only | Print | Product List | Glossary On
Versions: 1 2 3 4 5 6 7 8 9 10 11 12 13 14 15 16 17 18 19 20 21 22 23 24 25 26 27 28 29 30 31 32 33 34 35 36 37 38 39 40 41 42 43 44 45 46 47 48 49 50
664
ASUS44 KJAN 301510
RWRMS

MISSISSIPPI HOURLY WEATHER ROUNDUP
NATIONAL WEATHER SERVICE JACKSON MS
1000 AM CDT SAT AUG 30 2014

NOTE: "FAIR: INDICATES FEW OR NO CLOUDS BELOW 12,000 FEET WITH NO
SIGNIFICANT WEATHER AND/OR OBSTRUCTIONS TO VISIBILITY.

MSZ001>002-007>008-010>013-018>021-025>028-034>036-301600-
NORTHWEST MISSISSIPPI

CITY           SKY/WX    TMP DP  RH WIND       PRES   REMARKS
CLARKSDALE     FAIR      77  77 100 CALM      30.04R
CLEVELAND      PTSUNNY   78  76  93 S7        30.03R
GREENWOOD      CLOUDY    80  73  79 S8        30.05R
GREENVILLE     CLOUDY    78  74  87 SE5       30.03R
GRENADA        FAIR      79  72  78 S5        30.05S
OLIVE BRANCH   CLOUDY    75  75 100 CALM      30.05F FOG
OXFORD         FAIR      77  70  78 CALM      30.07S
TUNICA         LGT RAIN  77  73  88 SE5       30.05R
$$

MSZ003>006-009-014>017-022>024-029>033-037>039-301600-
NORTHEAST MISSISSIPPI

CITY           SKY/WX    TMP DP  RH WIND       PRES   REMARKS
BELMONT        PTSUNNY   77  70  79 S5        30.09R
COLUMBUS AFB   PTSUNNY   83  71  67 S7        30.08R
CORINTH        FAIR      77  72  83 CALM      30.07R
GOLDN TRIANGLE PTSUNNY   82  72  69 S7        30.09R
STARKVILLE     FAIR      81  72  74 CALM      30.07S
TUPELO         CLOUDY    81  70  69 SW3       30.06S
$$

MSZ040-058-301600-
CENTRAL MISSISSIPPI

CITY           SKY/WX    TMP DP  RH WIND       PRES   REMARKS
JACKSON INTL   CLOUDY    81  75  82 S5        30.06R
JACKSON HAWKNS CLOUDY    80  74  81 SE7       30.06R
MERIDIAN KEY   MOSUNNY   83  73  72 S7        30.08R
MERIDIAN NAS   PTSUNNY   84  74  71 S6        30.09R HX  91
RAYMOND        FAIR      81  75  83 MISG      30.05S
VICKSBURG      LGT RAIN  79  73  82 SE8       30.03R
$$

MSZ059>079-301600-
SOUTH MISSISSIPPI

CITY           SKY/WX    TMP DP  RH WIND       PRES   REMARKS
BROOKHAVEN     PTSUNNY   82  75  78 SE7       30.07R
COLUMBIA       FAIR      84  77  79 VRB6      30.04R HX  94
HATTIESBURG    MOSUNNY   87  75  67 S8G24     30.07R HX  96
MCCOMB         PTSUNNY   83  75  77 S12       30.05R HX  90
NATCHEZ        CLOUDY    75  73  94 SE5       30.04R
PINE BELT      MOSUNNY   84  73  70 S10       30.08R HX  91
$$

MSZ080>082-301600-
COASTAL MISSISSIPPI

CITY           SKY/WX    TMP DP  RH WIND       PRES   REMARKS
BAY ST LOUIS   PTSUNNY  N/A N/A N/A SE12      30.05R
BILOXI         SUNNY     88  77  69 SE13      30.06R HX  99
PASCAGOULA     MOSUNNY   87  76  69 SE12      30.07R HX  97
GULFPORT       MOSUNNY   87  77  72 SE13      30.05R HX  99
$$



USA.gov is the U.S. government's official web portal to all federal, state and local government web resources and services.